DW1188 Weather Reports


Display with metric or nautical units.
time (UTC)temp
F
wind
direction
speed
MPH
gust
MPH
rain 1hr
in
rain 24hr
in
rain mn
in
humidity
%
barometer
mb
20260510135839 49 86 0.0 0.0 0.00 0.00 0.00 82 1018.2
20260510134613 49 86 0.0 0.0 0.00 0.00 0.00 83 1018.2
20260510133357 48 96 0.0 0.0 0.00 0.00 0.00 84 1018.3
20260510132138 47 95 0.0 0.0 0.00 0.00 0.00 85 1018.5
20260510130932 47 95 0.0 0.0 0.00 0.00 0.00 85 1018.3
20260510125702 47 95 0.0 0.0 0.00 0.00 0.00 85 1018.2
20260510120521 47 96 0.0 0.0 0.00 0.00 0.00 83 1018.4
20260510115325 48 97 0.0 0.0 0.00 0.00 0.00 81 1018.5
20260510114052 48 97 0.0 0.0 0.00 0.00 0.00 80 1018.5
20260510112905 48 92 0.0 0.0 0.00 0.00 0.00 80 1018.5
20260510111638 48 71 0.0 0.0 0.00 0.00 0.00 81 1018.6
20260510103650 49 74 0.0 0.0 0.00 0.00 0.00 81 1018.7
20260510102509 49 76 0.0 0.0 0.00 0.00 0.00 81 1018.7
20260510095919 49 95 0.0 0.0 0.00 0.00 0.00 80 1018.6
20260510094655 49 117 0.0 0.0 0.00 0.00 0.00 81 1018.7
20260510093520 49 109 0.0 0.0 0.00 0.00 0.00 79 1018.8
20260510092257 49 107 0.0 1.0 0.00 0.00 0.00 79 1018.8
20260510091033 50 103 0.0 0.0 0.00 0.00 0.00 80 1018.9
20260510084541 50 101 0.0 0.0 0.00 0.00 0.00 78 1019.1
20260510083315 51 109 0.0 0.0 0.00 0.00 0.00 76 1019.2
20260510082132 51 109 0.0 0.0 0.00 0.00 0.00 75 1019.2
20260510080947 51 109 0.0 0.0 0.00 0.00 0.00 75 1019.4
20260510075816 51 113 0.0 0.0 0.00 0.00 0.00 74 1019.2
20260510074639 52 115 0.0 0.0 0.00 0.00 0.00 74 1019.4
20260510073454 52 108 0.0 0.0 0.00 0.00 0.00 74 1019.3
20260510070850 53 104 0.0 0.0 0.00 0.00 0.00 73 1019.1
20260510065621 53 86 0.0 0.0 0.00 0.00 0.00 72 1019.2
20260510064428 53 96 0.0 0.0 0.00 0.00 0.00 71 1019.2
20260510063240 53 89 0.0 0.0 0.00 0.00 0.00 70 1019.4
20260510062102 54 145 0.0 0.0 0.00 0.00 0.00 68 1019.7
20260510060929 55 145 0.0 0.0 0.00 0.00 0.00 66 1019.7
20260510055749 55 145 0.0 0.0 0.00 0.00 0.00 66 1019.6
20260510053309 56 146 0.0 0.0 0.00 0.00 0.00 67 1019.6
20260510052112 57 150 0.0 0.0 0.00 0.00 0.00 65 1019.7
20260510045543 58 116 0.0 0.0 0.00 0.00 0.00 59 1019.8
20260510044407 59 116 0.0 0.0 0.00 0.00 0.00 56 1019.8
20260510043149 60 132 0.0 0.0 0.00 0.00 0.00 53 1019.9
20260510041951 61 142 0.0 0.0 0.00 0.00 0.00 50 1019.9
20260510040738 62 142 0.0 0.0 0.00 0.00 0.00 48 1019.8
20260510035525 63 142 0.0 0.0 0.00 0.00 0.00 46 1019.8
20260510034326 63 142 0.0 0.0 0.00 0.00 0.00 45 1019.6
20260510033131 64 142 0.0 0.0 0.00 0.00 0.00 44 1019.5
20260510031921 64 142 0.0 0.0 0.00 0.00 0.00 43 1019.4
20260510030643 65 142 0.0 0.0 0.00 0.00 0.00 42 1019.3
20260510024017 66 144 0.0 0.0 0.00 0.00 0.00 40 1019.5
20260510022804 67 144 0.0 0.0 0.00 0.00 0.00 40 1019.5
20260510021611 67 152 0.0 5.0 0.00 0.00 0.00 38 1019.5
20260510013833 69 183 0.0 0.0 0.00 0.00 0.00 37 1019.7
20260510012650 68 242 0.0 0.0 0.00 0.00 0.00 37 1019.7
20260510011438 69 235 0.0 0.0 0.00 0.00 0.00 36 1019.8
20260510010236 69 178 0.0 0.0 0.00 0.00 0.00 36 1019.9
20260510005014 69 183 0.0 0.0 0.00 0.00 0.00 36 1020.0
20260510003734 69 152 0.0 0.0 0.00 0.00 0.00 35 1020.0
20260510002552 69 173 0.0 0.0 0.00 0.00 0.00 35 1020.2
20260510001331 69 225 0.0 3.0 0.00 0.00 0.00 36 1020.0
20260510000159 69 211 0.0 0.0 0.00 0.00 0.00 37 1020.0
20260509235017 69 157 0.0 0.0 0.00 0.00 0.00 36 1020.2
20260509233824 69 168 0.0 0.0 0.00 0.00 0.00 36 1020.2
20260509232622 69 191 0.0 5.0 0.00 0.00 0.00 38 1020.1
20260509230044 68 241 0.0 0.0 0.00 0.00 0.00 38 1020.3
20260509224839 68 182 0.0 0.0 0.00 0.00 0.00 38 1020.4
20260509223655 69 101 0.0 1.0 0.00 0.00 0.00 38 1020.5
20260509222506 68 162 0.0 0.0 0.00 0.00 0.00 39 1020.6
20260509221336 68 244 0.0 0.0 0.00 0.00 0.00 40 1020.7
20260509220126 67 117 0.0 0.0 0.00 0.00 0.00 40 1020.7
20260509214951 66 132 0.0 0.0 0.00 0.00 0.00 41 1020.9
20260509212355 66 134 0.0 0.0 0.00 0.00 0.00 42 1021.3
20260509205912 65 142 0.0 8.0 0.00 0.00 0.00 43 1021.6
20260509204641 64 155 0.0 0.0 0.00 0.00 0.00 44 1021.7
20260509203506 64 154 0.0 1.0 0.00 0.00 0.00 46 1021.7
20260509202331 65 164 0.0 0.0 0.00 0.00 0.00 45 1021.9
20260509201159 64 150 0.0 6.0 0.00 0.00 0.00 45 1022.0
20260509200010 63 172 0.0 0.0 0.00 0.00 0.00 46 1022.1
20260509194740 63 117 0.0 1.0 0.00 0.00 0.00 48 1022.1
20260509193554 63 59 0.0 7.0 0.00 0.00 0.00 47 1022.4
20260509191051 62 181 1.0 3.0 0.00 0.00 0.00 49 1022.7
20260509185914 61 136 0.0 8.0 0.00 0.00 0.00 51 1022.7
20260509184704 60 119 3.0 13.0 0.00 0.00 0.00 51 1022.7
20260509182059 60 130 1.0 15.0 0.00 0.00 0.00 54 1022.6
20260509180917 59 146 2.0 15.0 0.00 0.00 0.00 53 1022.6
20260509175714 59 175 0.0 9.0 0.00 0.00 0.00 55 1022.8
20260509174534 58 169 0.0 9.0 0.00 0.00 0.00 56 1022.7
20260509173320 57 204 2.0 13.0 0.00 0.00 0.00 56 1022.6
20260509172050 57 183 2.0 10.0 0.00 0.00 0.00 56 1022.5
20260509170913 56 186 0.0 16.0 0.00 0.00 0.00 57 1022.5
20260509165732 56 109 2.0 16.0 0.00 0.00 0.00 57 1022.7
20260509164539 55 133 1.0 9.0 0.00 0.00 0.00 58 1022.6
20260509163314 55 198 1.0 11.0 0.00 0.00 0.00 59 1022.7
20260509162115 54 159 0.0 10.0 0.00 0.00 0.00 61 1022.7
20260509160929 54 144 1.0 16.0 0.00 0.00 0.00 61 1022.6
20260509155719 53 125 1.0 16.0 0.00 0.00 0.00 60 1022.5
20260509154529 53 136 2.0 16.0 0.00 0.00 0.00 61 1022.4
20260509153250 52 147 4.0 15.0 0.00 0.00 0.00 61 1022.3
20260509152034 52 120 3.0 15.0 0.00 0.00 0.00 61 1022.1
20260509150904 51 161 3.0 13.0 0.00 0.00 0.00 61 1022.1
20260509145733 51 130 3.0 13.0 0.00 0.00 0.00 62 1022.0
20260509144527 51 138 2.0 12.0 0.00 0.00 0.00 63 1021.8
20260509143342 50 167 1.0 0.0 0.00 0.00 0.00 63 1021.7
20260509142125 50 158 0.0 0.0 0.00 0.00 0.00 63 1021.7